Orbital Elements at Epoch 2459200.5 (2020-Dec-17.0) TDB
Reference: JPL 17 (heliocentric ecliptic J2000)
Element | Value | Uncertainty (1-sigma) | Units |
e | .2165240915211829 | 5.6619e-08 | |
a | 2.29186150948684 | 9.9628e-09 | au |
q | 1.795618278252835 | 1.295e-07 | au |
i | 25.6435135080701 | 7.1537e-06 | deg |
node | 110.5893823132041 | 1.2164e-05 | deg |
peri | 6.039099997575017 | 1.9091e-05 | deg |
M | 88.63508086749657 | 1.3409e-05 | deg |
tp | 2458888.478782030744 (2020-Feb-08.97878203) | 4.6625e-05 | TDB |
period | 1267.304518363947 3.47 | 8.2635e-06 2.262e-08 | d yr |
n | .2840674792706882 | 1.8523e-09 | deg/d |
Q | 2.788104740720845 | 1.212e-08 | au |
|
| | Orbit Determination Parameters
Additional Information
|